RH
73 67 59 51 50 51 49 59 72 68 64 64 59 54 50 52 55 55 58 56 51 48 43 38 31 19 12 11 9 6 7 13 17 17 20 28 36 40 39 38 42 53 69 82 85 82 77 77 79 78 75 77 80 87 92 93 97 98 97 97 91 91 98 94 84 74 68 67 63 55 45 32 21 17 17 17 18 21 25 27 30 31 31 32 31
72 71 67 58 55 49 41 53 69 67 61 58 53 48 44 51 59 59 58 54 48 44 40 37 30 19 13 9 8 7 9 18 25 21 18 22 27 31 38 46 51 59 73 84 83 72 64 63 65 66 69 77 85 92 96 97 99 99 98 97 95 96 96 87 76 68 66 64 57 47 34 22 18 17 17 19 21 26 28 30 31 31 31 32 31
69 71 66 59 58 49 37 48 59 57 55 52 48 44 41 52 67 70 66 58 50 43 38 35 27 17 12 8 8 9 12 22 28 21 16 20 27 34 43 50 57 69 79 83 76 64 58 57 55 53 59 72 84 88 87 87 93 97 94 91 95 98 91 79 69 65 64 59 49 36 24 19 19 18 18 21 25 29 31 31 31 31 31 30 30
67 73 72 61 59 51 38 41 47 46 48 49 49 47 46 54 64 64 58 53 49 44 38 33 24 15 10 9 9 9 14 23 28 23 22 31 40 46 48 51 63 77 81 74 65 58 57 57 53 52 59 72 82 85 82 82 87 94 91 87 94 95 82 70 66 65 61 53 41 28 20 20 20 21 22 25 29 33 34 34 34 32 30 29 30
70 74 75 63 55 51 38 35 41 44 44 48 52 52 51 50 49 45 41 42 43 41 37 31 23 13 9 10 9 10 13 19 27 31 34 43 49 50 53 62 72 75 71 63 58 57 58 57 55 57 66 74 79 82 84 85 87 92 91 87 90 86 72 67 67 64 57 47 33 23 20 22 22 24 27 31 33 34 36 36 36 33 29 28 30
77 75 72 61 53 49 39 34 40 45 47 48 51 51 48 42 38 38 38 40 39 36 33 28 20 12 11 12 10 15 19 18 27 36 41 46 47 44 51 66 71 65 59 57 56 55 52 50 52 61 74 78 80 82 84 86 88 91 91 88 86 78 68 68 68 62 54 42 28 21 21 22 24 28 33 36 34 33 35 35 34 32 29 28 30
79 73 64 51 44 44 41 36 36 41 47 49 47 44 40 37 37 37 39 41 38 33 29 27 20 11 12 12 10 19 24 19 24 34 39 42 41 41 47 55 55 52 54 55 53 50 46 46 53 66 76 79 81 83 86 91 91 91 91 88 83 74 68 69 66 59 50 36 24 21 22 23 28 33 37 37 35 32 31 31 31 30 29 30 30
78 66 50 38 38 41 39 33 31 36 44 45 41 38 35 37 36 34 37 40 36 31 30 32 25 11 11 13 10 15 20 19 25 32 36 36 38 43 45 42 41 46 51 52 50 50 50 53 61 72 78 81 85 87 92 97 94 91 91 87 77 68 67 68 63 57 46 31 23 23 24 28 34 37 39 39 39 37 34 33 32 32 32 32 33
67 48 40 44 46 42 36 30 26 28 34 36 34 32 32 34 33 31 34 35 35 29 28 35 30 14 11 13 9 9 14 20 28 32 32 32 35 39 37 34 37 45 49 50 52 55 58 61 69 78 83 84 86 92 97 98 93 90 87 78 67 65 69 66 60 54 41 27 22 24 28 35 40 41 42 43 43 42 40 38 37 37 37 35 35
52 43 50 55 47 43 42 33 21 17 23 32 34 31 30 30 29 29 31 31 31 24 22 34 33 17 12 12 8 10 17 23 29 30 27 27 30 33 31 31 38 47 50 52 54 58 62 66 71 78 83 83 85 91 92 91 91 88 79 68 63 67 70 64 58 51 36 24 22 24 30 37 42 44 47 48 48 45 43 42 42 43 41 38 37
52 55 58 47 35 39 41 29 19 15 16 26 33 28 25 29 28 28 28 24 21 20 27 41 35 16 12 11 7 14 23 27 28 24 18 22 28 30 26 26 37 49 53 53 52 55 62 67 68 74 81 82 82 86 85 84 86 82 71 64 65 70 68 61 56 46 30 22 22 24 30 36 40 46 50 51 51 51 49 48 49 48 44 41 39
51 46 38 28 25 29 27 20 17 17 20 28 32 24 21 28 28 24 21 16 18 26 38 43 29 12 11 10 7 16 26 27 22 15 13 20 27 26 20 24 40 52 55 54 52 51 56 61 66 73 79 81 82 83 82 81 80 74 67 65 69 71 64 57 51 39 26 22 22 24 29 35 40 45 47 47 49 52 53 55 56 53 48 45 42
34 25 20 18 19 18 19 21 18 22 31 35 29 18 18 26 24 19 15 13 20 29 32 28 16 9 11 8 5 15 24 20 14 12 16 22 24 21 21 32 47 55 57 55 54 53 52 54 62 71 77 81 83 83 81 78 75 70 67 69 72 69 60 53 44 32 25 23 23 24 30 36 41 44 44 43 44 46 51 56 57 54 50 48 45
17 15 14 13 13 16 24 24 20 26 32 29 20 13 16 22 20 15 12 12 18 23 19 13 10 9 9 5 4 11 15 12 11 12 15 17 17 19 28 42 52 57 57 56 56 55 51 50 59 68 74 79 83 82 79 76 72 70 70 72 72 65 57 49 38 29 25 24 24 28 34 40 43 44 44 43 41 41 45 50 52 51 49 47 46
15 13 14 14 14 21 29 25 20 24 23 15 11 9 13 17 14 12 11 12 15 16 12 9 9 9 6 4 3 7 8 8 10 12 12 12 13 20 35 48 54 56 55 54 55 53 47 49 58 66 70 77 82 81 78 75 72 72 73 72 68 60 53 44 34 28 26 25 27 32 39 44 45 45 45 43 41 41 42 43 45 47 46 44 42
15 13 15 19 23 29 30 23 20 19 13 7 6 7 9 11 10 10 9 11 14 11 9 8 9 7 4 3 4 5 6 7 9 11 10 11 14 22 34 44 50 52 50 50 51 47 41 44 55 63 67 73 78 79 79 77 73 73 73 70 63 55 48 39 33 30 28 28 30 35 41 44 45 45 43 42 42 42 43 43 43 43 44 42 39
13 12 16 25 29 31 27 22 23 20 12 8 6 6 7 8 8 9 8 9 10 9 9 8 6 4 3 3 4 5 6 7 9 10 10 12 15 20 26 33 41 46 47 49 47 40 35 38 47 56 60 66 71 76 80 77 74 74 72 67 61 53 45 38 34 31 30 30 32 35 40 42 42 42 41 42 43 45 48 49 49 45 42 42 38
13 11 19 28 29 30 29 23 21 21 19 18 14 9 7 7 6 7 9 9 7 8 9 6 4 4 3 4 5 6 7 8 9 10 11 12 14 16 19 26 35 42 47 50 45 36 32 32 38 45 50 59 69 77 81 77 75 75 71 66 60 53 47 41 37 34 32 32 33 36 38 39 39 39 40 42 44 49 52 55 55 47 42 41 37
16 15 20 24 25 26 28 25 21 23 27 30 29 20 10 7 6 8 10 9 6 7 6 4 3 3 4 5 6 7 8 8 9 10 11 12 13 17 23 29 35 41 48 51 45 37 30 28 32 38 44 57 72 80 81 77 75 74 70 65 61 56 51 45 40 36 34 35 35 37 38 37 38 37 39 43 47 51 54 56 54 47 42 40 36
16 17 19 21 22 23 26 32 34 35 36 37 38 32 20 13 11 11 11 8 5 6 4 3 4 4 5 5 6 7 7 8 10 11 11 12 16 25 33 36 38 41 47 51 46 37 29 25 27 34 46 60 73 80 79 75 74 72 68 65 62 58 53 48 43 38 36 37 37 38 38 37 37 38 41 46 50 53 52 52 49 44 42 38 35
15 18 20 20 22 26 34 42 43 42 42 39 39 36 28 20 16 13 11 7 5 5 4 3 4 4 5 5 6 7 7 9 11 12 12 14 22 33 39 39 38 39 44 48 43 33 26 23 24 33 47 62 72 76 75 73 71 69 65 64 63 59 54 49 45 40 38 38 39 39 38 38 38 39 43 48 52 52 49 46 44 41 40 36 34
17 20 22 21 24 33 43 46 46 47 45 39 35 33 28 22 19 16 10 6 5 4 3 4 4 5 5 5 6 7 8 10 11 12 13 17 27 36 38 37 36 36 40 43 38 29 23 20 22 31 47 61 69 71 69 68 67 66 65 65 63 58 53 49 45 41 40 40 40 38 36 37 38 41 46 49 50 50 46 43 41 40 39 36 35
22 25 24 23 27 39 48 47 48 49 45 38 32 28 26 26 24 17 9 6 6 4 4 5 5 5 5 5 6 7 9 11 11 11 13 20 29 34 33 33 33 33 37 39 35 28 23 19 20 30 46 60 66 65 64 64 64 65 64 62 59 54 50 47 44 42 41 40 38 36 35 37 40 44 49 49 47 45 43 41 40 39 38 36 39
29 28 26 26 27 36 46 47 46 43 38 34 29 25 28 30 25 15 8 7 6 4 5 5 5 5 6 6 7 9 11 12 11 11 13 20 27 29 29 31 31 32 37 40 35 29 24 19 17 27 44 59 65 64 63 62 62 62 60 57 54 51 47 45 42 40 39 37 36 34 35 38 42 47 50 46 42 41 41 41 40 39 38 39 45
31 26 26 26 23 25 33 40 44 41 34 31 27 24 27 28 23 12 7 7 6 5 6 5 6 6 6 7 8 10 13 13 12 12 14 20 24 25 28 31 32 32 37 42 39 30 25 20 15 21 39 56 64 65 63 62 61 58 54 52 51 48 45 44 42 38 36 34 33 33 36 41 45 48 48 43 39 40 41 40 40 40 40 44 51
26 24 25 24 19 20 28 38 45 40 32 28 24 20 21 22 18 10 6 6 5 5 6 6 6 7 7 8 9 11 13 13 13 14 16 19 21 24 29 33 34 32 37 44 40 31 26 22 16 16 29 48 60 65 65 61 57 53 50 49 48 47 46 45 41 37 34 32 32 35 40 44 45 45 44 40 39 41 42 41 41 42 44 50 56
26 25 24 21 19 23 30 41 45 37 30 29 23 18 18 17 15 9 6 6 6 6 6 6 7 8 9 9 10 12 12 12 14 16 18 20 22 27 32 34 33 32 36 43 40 32 27 23 18 15 20 34 50 61 65 62 57 52 48 47 47 47 46 44 39 34 32 31 33 38 43 44 42 40 40 40 41 42 42 42 43 45 50 55 58
26 24 21 19 21 24 30 40 43 35 30 29 23 18 17 15 14 9 6 7 7 6 6 7 8 10 11 11 11 12 12 12 14 16 18 21 25 31 34 33 33 32 35 41 38 32 28 24 20 15 15 22 33 44 52 55 55 53 51 50 49 48 46 41 36 32 32 34 36 40 42 41 39 39 40 41 43 43 44 44 45 49 55 58 59
22 20 20 22 24 26 29 33 33 29 27 26 21 18 16 14 13 9 8 9 8 6 6 6 9 11 12 12 12 13 11 12 15 15 18 25 31 35 35 34 34 32 34 39 37 31 29 26 21 17 15 18 23 31 38 43 48 52 54 52 49 47 43 38 36 35 35 36 38 40 41 41 41 42 43 44 44 44 45 46 49 54 58 59 60
24 24 27 28 28 28 28 27 25 25 25 22 19 20 19 16 15 13 11 10 8 7 6 6 8 11 12 13 13 13 12 12 15 17 22 31 38 39 37 34 32 31 34 37 36 31 29 27 23 18 16 17 21 30 36 39 43 49 52 51 49 46 43 42 41 38 37 39 40 42 45 47 48 48 46 46 45 45 47 50 54 58 59 60 62
34 37 39 38 35 31 27 25 23 22 22 18 17 22 24 21 21 20 16 13 11 8 7 7 8 10 13 14 13 12 12 13 16 21 28 37 42 40 36 32 29 29 31 34 33 32 30 28 25 21 18 18 21 26 31 31 34 40 44 43 41 41 44 48 46 42 44 47 49 53 57 56 54 50 47 46 46 47 51 54 58 60 60 61 63
48 51 49 43 36 30 25 23 23 22 20 18 17 20 21 22 26 30 28 23 16 10 7 7 8 11 13 14 12 11 13 15 20 27 33 37 37 33 30 28 27 27 29 31 31 30 30 29 26 23 21 20 20 22 23 23 25 30 34 33 35 43 52 56 57 61 66 65 65 68 65 56 51 48 46 47 48 50 55 58 60 61 61 61 61
60 60 54 43 32 27 27 27 26 22 19 19 18 18 19 27 39 42 34 24 15 10 9 8 8 11 13 12 11 12 14 19 24 28 28 26 23 22 23 24 24 25 28 30 30 29 29 29 27 25 24 23 22 22 22 21 23 26 28 29 34 44 51 57 68 79 84 86 83 74 60 50 48 47 47 49 51 55 59 61 61 62 61 58 54
70 65 56 43 31 29 32 30 26 22 18 16 16 15 19 29 39 37 27 19 15 12 10 8 8 11 11 10 11 13 16 21 24 22 19 17 15 17 19 19 19 22 27 30 30 30 30 30 29 28 27 25 25 25 25 26 26 27 29 29 31 34 39 51 71 83 85 87 80 62 50 48 48 47 48 51 55 59 61 62 63 62 57 50 43
58 54 47 40 35 35 37 34 29 25 22 19 18 18 21 24 25 22 18 19 21 17 10 8 8 9 9 10 11 15 19 22 22 19 18 17 16 16 18 18 18 20 24 26 30 33 34 33 31 29 29 29 28 28 29 30 30 30 32 32 33 39 47 59 75 81 73 64 55 46 46 49 49 48 51 55 59 62 63 63 63 57 49 41 36
47 44 42 41 41 40 38 35 31 28 27 28 26 24 23 21 19 17 17 21 27 22 12 8 8 8 9 11 13 18 22 22 22 22 20 19 21 20 19 20 20 20 22 25 30 34 36 35 34 32 31 31 31 32 32 32 34 37 37 38 43 53 61 64 66 62 50 42 41 44 48 49 49 50 54 58 62 64 64 63 58 49 40 36 35
49 44 41 41 40 38 36 33 29 26 26 28 27 22 20 19 20 21 21 24 29 24 13 9 9 9 10 13 16 20 22 22 24 24 23 26 36 39 32 27 26 25 26 27 30 35 38 39 39 37 35 34 34 35 34 33 36 39 43 52 62 65 61 55 48 42 38 39 44 47 49 50 50 53 57 62 64 65 65 61 51 41 37 36 38
47 43 40 39 38 36 33 31 30 30 31 30 28 25 23 22 23 24 24 26 28 24 15 9 10 13 14 15 18 21 22 23 25 26 25 31 44 52 48 43 40 37 34 32 32 36 43 46 45 42 39 38 36 35 34 33 35 37 41 48 55 52 46 41 38 37 39 43 49 51 51 51 52 55 61 65 66 67 66 56 44 37 37 39 41
46 42 41 41 39 37 34 33 35 38 37 35 32 29 26 24 22 22 24 27 27 21 15 11 13 17 19 19 20 21 21 23 25 27 29 32 36 41 47 53 54 50 46 42 41 45 51 53 51 47 42 40 38 36 34 33 33 35 37 39 41 40 39 38 39 43 50 57 61 58 53 52 54 59 65 68 70 70 62 49 39 37 39 42 45
51 47 47 45 41 38 36 35 36 36 34 32 30 28 26 23 20 21 25 28 26 19 14 14 17 19 22 27 30 26 22 24 27 29 34 39 39 38 42 51 56 54 51 54 61 69 70 63 56 50 45 41 38 35 33 33 35 38 39 40 42 45 48 51 56 64 74 77 70 59 53 55 59 63 67 71 73 70 57 43 37 39 42 45 48
54 52 51 47 43 40 37 35 35 34 32 30 27 25 24 21 20 24 29 28 23 18 15 16 20 19 19 24 29 28 27 26 28 33 37 39 40 39 42 51 61 63 60 60 66 69 66 59 53 47 42 38 35 34 35 37 39 39 39 43 54 64 69 71 72 75 79 76 65 57 57 61 64 67 71 73 72 64 50 39 38 42 45 48 52
47 45 42 40 39 38 37 35 33 32 31 29 27 24 22 22 24 29 32 27 21 19 20 22 24 22 20 23 27 30 31 28 29 35 37 32 32 37 41 52 69 77 71 61 56 53 49 45 43 40 38 36 37 39 39 39 41 43 44 51 64 71 70 67 66 69 69 65 60 59 61 65 70 75 76 75 71 59 46 39 42 46 48 50 54
42 39 37 34 33 33 33 33 33 33 32 30 28 25 23 27 34 34 30 25 23 24 28 31 31 27 28 34 37 37 37 35 34 36 34 29 31 36 39 45 57 66 62 53 47 44 41 38 38 39 40 41 42 42 42 44 48 51 50 51 57 59 57 58 61 64 63 62 62 63 65 70 76 80 79 77 71 58 45 43 48 52 53 54 55
41 39 36 33 31 30 29 29 30 33 33 31 28 26 27 34 39 34 27 26 28 31 34 39 41 39 37 39 39 39 41 39 35 34 35 35 36 40 45 48 51 53 50 45 41 40 40 40 42 43 42 43 43 44 47 51 53 51 47 47 51 54 56 58 61 62 63 65 65 66 70 75 80 82 81 77 70 58 48 48 54 59 60 60 59
42 38 35 33 33 32 31 33 32 28 29 31 28 27 31 37 35 30 29 31 33 38 45 50 53 52 48 45 42 41 41 37 32 33 38 39 40 44 49 50 48 46 44 42 41 42 43 43 42 39 39 41 43 43 43 43 44 43 44 49 54 57 59 60 63 66 67 68 68 71 76 80 83 84 83 80 72 59 50 51 57 62 65 64 63
40 38 35 33 34 31 34 50 55 40 29 30 29 29 32 34 32 30 32 35 41 50 60 62 60 58 54 50 46 42 38 36 35 37 39 42 45 48 48 46 45 45 43 42 42 41 40 38 36 35 37 40 41 40 38 36 37 40 46 53 57 59 61 64 67 69 69 71 76 80 83 86 86 83 83 82 74 59 52 57 63 67 70 69 67
38 38 36 34 35 29 30 52 72 67 53 45 39 35 33 33 37 38 38 45 56 63 65 64 63 61 56 51 46 42 39 39 40 42 44 46 47 47 46 45 44 42 40 39 38 37 36 36 35 35 37 37 37 37 37 36 37 42 49 56 60 61 65 69 69 70 74 78 83 87 90 93 92 87 85 81 70 61 63 67 68 69 74 76 75
38 40 38 36 35 30 29 43 63 74 77 67 53 48 48 49 54 55 54 60 67 69 68 68 65 61 55 49 45 44 43 43 43 44 45 45 45 44 43 42 40 39 39 38 36 36 37 37 38 38 38 38 38 37 37 38 42 48 55 59 62 66 70 72 73 76 80 83 88 94 98 99 96 93 91 80 66 64 72 71 64 63 68 75 81
46 45 41 36 31 31 39 52 62 75 89 89 77 70 69 68 68 69 71 75 76 74 73 70 64 58 53 49 47 46 45 44 44 44 44 44 44 43 41 40 39 39 38 37 36 38 39 40 42 41 39 40 40 40 42 46 51 55 58 61 65 70 73 74 76 80 83 86 91 95 97 97 94 93 91 79 68 72 79 72 61 59 64 76 88
57 47 39 36 33 33 45 62 73 78 85 90 90 82 73 72 77 81 83 83 80 76 72 66 61 58 55 53 52 50 48 48 48 48 48 47 46 44 42 41 42 41 40 40 40 41 42 41 41 40 40 44 46 46 48 53 56 58 61 64 67 68 69 72 75 76 78 81 86 89 90 90 89 90 90 85 80 84 83 71 59 57 62 74 84
54 47 40 36 36 40 52 70 82 82 76 77 84 82 72 71 80 86 87 85 80 74 71 66 64 63 61 60 59 57 56 56 54 53 53 52 49 47 46 46 46 44 42 41 40 41 42 41 40 42 48 55 58 58 60 63 63 63 64 65 66 66 66 67 67 67 71 77 82 85 86 84 84 89 95 97 96 91 78 63 54 50 48 48 48
Wind_Speed
38 40 39 32 31 33 32 29 26 24 24 23 23 23 23 23 24 25 25 25 28 31 32 31 30 29 27 26 23 23 22 20 18 16 14 12 12 12 12 13 14 14 14 16 17 18 18 18 16 15 15 16 16 16 14 13 12 12 12 13 12 10 8 8 7 7 8 8 9 10 11 13 14 15 16 17 18 19 20 21 23 24 26 28 30
42 41 40 36 34 34 31 28 26 24 25 25 24 25 25 24 25 27 27 27 29 32 32 31 30 29 27 26 24 23 22 19 16 15 13 13 13 13 13 14 15 15 15 17 18 19 20 18 16 15 15 15 16 14 13 12 11 10 11 12 11 9 7 7 7 8 8 9 10 11 12 13 14 15 16 17 18 19 21 22 23 25 26 28 30
48 45 43 40 39 37 31 28 26 26 29 29 27 26 25 24 23 23 25 27 30 31 32 31 30 28 27 26 24 23 22 19 16 15 13 13 13 13 15 15 16 15 16 17 19 20 19 19 18 16 15 15 14 13 12 12 11 11 12 12 9 7 6 7 8 9 9 9 10 11 12 13 14 16 17 18 19 20 21 23 24 26 27 29 31
51 48 47 44 42 40 34 29 28 31 33 31 30 28 26 26 25 25 27 30 32 32 32 32 30 28 27 26 26 24 21 19 17 16 14 13 13 14 16 16 16 16 17 18 18 19 18 18 18 17 16 14 13 13 13 13 12 11 11 10 8 6 7 8 9 10 10 9 10 12 12 14 15 16 17 18 19 20 22 23 25 26 28 29 31
51 49 50 48 45 42 37 32 31 32 33 32 29 27 26 28 30 30 29 30 32 33 33 32 30 28 27 27 27 25 22 20 18 16 15 13 14 15 16 16 16 16 17 17 17 18 17 18 18 17 16 16 15 15 14 14 12 10 10 9 8 7 7 9 10 10 9 10 11 13 13 14 15 16 18 19 20 20 21 23 25 26 28 29 30
50 51 52 51 48 44 39 35 34 33 30 29 27 25 26 29 29 28 27 28 31 32 33 32 31 28 27 28 27 24 21 20 19 17 15 14 14 15 15 15 15 17 17 17 17 17 18 18 18 16 16 17 17 16 15 14 11 9 9 8 8 8 9 10 10 10 10 10 12 13 14 14 15 16 18 19 20 21 22 24 26 28 29 30 31
51 52 53 52 48 44 40 38 36 33 29 27 26 27 28 29 29 28 27 29 30 31 33 33 31 29 28 28 27 23 21 19 19 17 16 15 15 15 15 15 16 17 17 16 16 17 18 18 17 15 16 17 17 16 15 12 10 9 8 8 8 9 10 10 9 9 11 11 12 14 14 15 16 17 18 19 21 22 24 26 27 29 30 31 32
55 55 54 52 48 44 41 39 35 31 29 28 29 30 30 31 31 30 30 31 32 32 33 34 32 30 29 28 27 23 21 20 18 17 15 15 15 15 14 15 15 15 15 16 16 17 17 16 15 14 14 15 15 14 12 10 9 8 8 8 9 10 10 10 9 10 11 12 13 14 15 15 16 17 18 20 22 24 26 27 29 30 31 32 33
58 57 54 52 49 44 42 41 38 34 30 28 32 33 33 32 33 33 32 32 33 34 35 35 34 31 29 28 26 24 22 20 18 16 15 15 14 14 14 15 15 15 15 16 16 15 15 15 13 13 13 14 14 12 11 10 9 8 8 9 10 10 11 11 10 11 12 13 14 14 14 15 16 18 19 20 22 24 27 28 30 31 32 33 34
58 55 52 50 47 44 42 42 41 37 31 28 32 33 31 32 33 33 32 32 35 36 37 37 34 31 28 28 26 23 21 20 18 16 15 14 14 14 15 15 15 15 15 15 14 14 14 13 13 12 12 13 12 11 10 9 8 8 9 9 9 11 11 11 12 12 13 14 15 15 15 15 16 18 19 21 23 25 27 29 30 32 34 35 36
56 54 52 49 45 44 45 44 41 38 34 30 30 30 31 32 32 31 31 33 35 37 38 37 34 30 28 27 25 22 20 19 18 16 15 15 14 15 15 15 15 15 15 15 14 13 13 13 13 12 12 13 12 10 10 9 9 9 9 9 11 12 12 13 13 14 14 15 16 16 16 16 17 19 20 22 24 26 28 30 32 33 35 36 37
53 51 48 45 43 43 46 45 42 39 35 31 30 30 32 33 31 30 30 33 35 36 36 35 32 30 28 26 24 22 20 19 17 16 16 15 15 15 15 15 14 14 15 14 14 14 14 14 14 13 13 13 12 11 11 10 10 9 9 10 12 13 13 14 14 14 16 17 17 17 17 18 19 20 22 24 25 27 29 31 33 34 36 36 37
47 43 41 41 41 39 38 38 38 35 29 29 31 31 33 34 31 30 31 33 35 34 34 33 31 29 27 25 24 22 20 19 17 17 16 15 15 15 15 14 14 14 14 14 14 15 16 15 15 14 14 13 12 12 12 11 10 10 10 11 13 14 15 15 15 15 17 18 18 18 18 19 20 22 23 25 27 29 31 32 34 36 37 38 38
41 41 41 40 37 32 29 32 35 33 30 30 31 32 34 34 32 31 32 33 34 34 33 31 29 28 25 24 23 22 20 18 17 17 16 16 16 15 14 13 13 14 15 15 15 16 16 15 15 15 14 13 13 13 12 11 11 11 11 13 14 15 15 15 15 16 18 18 18 19 19 20 21 23 25 27 29 30 32 33 35 37 38 39 39
41 39 39 36 32 29 28 29 29 29 29 29 30 31 32 33 32 32 33 33 33 33 32 30 28 26 24 23 23 21 19 18 17 17 17 16 15 15 14 13 14 15 15 16 16 16 16 15 15 15 15 14 14 14 13 12 12 12 13 14 15 16 16 16 16 17 18 19 19 19 20 21 22 24 26 28 30 32 33 34 36 38 40 41 41
40 35 33 31 30 30 28 24 22 22 24 25 27 28 30 31 32 32 33 32 31 31 30 29 27 24 22 22 22 20 18 18 18 17 17 16 15 15 15 14 14 15 16 16 16 16 16 15 15 16 16 15 15 15 14 13 13 13 14 15 15 16 16 16 17 18 19 19 19 20 21 22 24 26 28 30 32 34 35 36 37 39 41 42 42
40 35 29 28 29 29 26 21 18 19 20 21 23 26 28 31 31 32 33 31 30 30 29 27 25 22 20 21 20 18 18 19 18 18 17 15 15 15 15 15 15 15 16 16 16 15 15 15 16 16 16 16 15 15 14 13 14 14 15 16 16 17 17 17 18 19 19 20 20 21 22 23 25 28 30 32 33 35 36 37 39 40 41 42 43
40 36 30 30 30 28 24 19 16 17 18 20 23 27 30 32 32 32 32 30 30 29 28 26 23 20 20 21 20 19 19 19 19 18 16 15 15 15 16 15 15 16 16 16 15 15 15 15 16 16 16 16 15 15 14 14 15 15 16 17 17 18 18 18 19 20 20 21 22 22 23 25 27 29 31 33 35 36 37 38 40 41 42 43 43
39 35 32 32 30 26 21 16 15 16 19 22 25 30 33 33 32 32 31 29 29 28 26 24 21 19 20 21 20 19 19 20 19 17 15 14 15 15 15 15 15 16 16 16 15 15 15 15 15 15 15 16 16 16 15 15 15 16 17 18 18 18 19 19 20 21 22 22 23 24 25 27 29 31 32 34 36 37 38 39 41 42 43 44 44
35 32 30 29 27 23 17 14 14 17 22 26 28 32 34 33 33 32 29 28 28 26 24 22 20 20 21 22 21 20 20 20 19 17 15 14 14 15 15 16 16 16 17 16 16 16 16 15 15 15 15 16 16 16 16 16 17 18 18 19 19 19 19 20 21 22 23 24 24 25 26 28 31 32 33 35 37 38 39 40 41 43 44 44 45
32 31 28 26 24 19 14 13 16 22 27 29 30 32 33 33 33 31 28 27 26 25 23 21 20 21 22 23 22 21 20 20 19 17 15 14 14 15 15 16 16 16 17 17 17 16 16 15 15 15 15 16 16 17 17 17 18 19 19 19 19 20 20 21 22 23 24 24 25 26 28 30 32 33 34 36 38 39 39 41 42 43 44 45 44
31 32 30 26 21 17 14 15 19 25 29 30 32 33 32 32 32 30 27 26 26 24 23 22 21 22 22 23 22 21 20 20 19 17 15 13 14 15 16 16 16 17 17 17 17 17 16 15 16 15 15 16 16 17 17 18 19 19 20 20 20 20 21 22 23 24 25 25 26 27 29 31 32 34 35 37 38 39 40 41 42 43 44 44 44
32 33 31 25 19 17 16 18 21 25 28 30 33 33 32 31 31 28 26 26 25 24 23 22 21 22 23 23 22 21 21 20 19 17 15 14 14 16 16 17 17 17 17 18 17 17 16 16 16 16 16 16 17 18 18 18 19 20 20 21 21 21 22 24 25 25 25 26 27 29 30 32 33 35 37 38 39 39 41 42 43 44 44 44 44
36 34 29 24 20 19 19 20 22 24 26 29 31 31 31 31 30 27 26 27 26 24 23 22 22 22 23 22 22 21 21 20 19 18 15 14 15 16 17 18 18 18 18 18 18 18 17 16 16 16 16 16 17 18 18 19 19 21 22 22 22 23 24 25 25 26 26 27 28 30 31 32 34 36 37 39 39 40 41 42 43 44 44 44 43
36 32 29 25 20 18 19 20 24 28 29 30 31 31 31 31 29 28 27 28 27 24 23 22 23 23 23 22 22 22 21 20 19 18 16 15 15 16 17 18 18 19 19 19 19 18 18 17 16 16 16 17 18 18 19 19 20 22 23 23 23 24 25 26 27 27 28 28 29 30 32 33 35 36 38 39 40 41 42 43 43 43 43 43 43
33 29 27 24 19 18 19 22 27 31 31 30 30 31 31 31 30 29 29 29 27 25 24 23 24 24 23 22 22 22 21 20 19 18 16 15 16 16 18 19 19 19 20 19 19 19 19 18 17 16 17 17 18 19 19 20 21 23 24 24 25 26 26 27 28 29 29 29 30 31 32 34 36 37 38 39 40 41 42 43 43 43 43 43 43
32 30 28 26 22 20 21 24 28 28 27 28 30 31 32 31 30 30 30 29 28 26 25 24 24 24 23 22 23 23 22 20 19 18 16 15 16 16 18 19 19 19 20 20 20 19 19 18 18 18 18 18 19 19 20 21 22 24 25 26 26 27 28 28 29 30 30 30 31 32 33 35 36 37 38 39 41 42 43 43 43 43 42 42 42
39 36 33 28 25 23 24 28 31 30 29 29 30 31 32 31 30 31 31 30 29 27 25 25 25 25 23 23 23 24 23 21 18 17 16 16 16 16 18 20 19 19 20 20 20 20 19 19 19 19 19 19 19 20 21 22 24 26 27 27 28 28 29 29 30 31 31 31 31 32 34 35 36 37 38 40 41 42 43 43 42 42 41 42 42
43 39 33 28 27 26 27 30 33 34 33 31 30 30 31 30 30 31 31 30 29 28 27 27 26 25 24 24 25 25 23 20 18 17 16 16 16 17 19 20 19 19 20 20 20 20 20 20 20 20 20 19 20 20 22 23 25 27 27 28 28 29 29 30 31 32 32 32 32 33 34 35 36 37 39 40 41 42 42 42 41 41 41 41 41
40 36 32 31 30 30 31 32 34 34 33 32 31 30 31 32 31 31 31 30 30 29 28 28 28 26 25 25 26 26 23 20 19 18 17 17 17 18 19 20 19 19 20 20 21 21 21 21 21 21 21 20 20 21 22 23 25 27 27 27 28 29 30 30 31 32 32 32 32 33 34 35 36 38 39 40 41 42 41 41 40 40 41 41 40
36 34 33 34 36 35 34 34 34 33 32 32 32 31 32 33 33 32 32 32 31 30 29 29 30 28 27 27 27 26 23 21 20 19 17 17 18 19 20 20 19 19 20 21 22 23 23 22 22 22 22 21 22 22 23 24 26 27 27 28 29 30 30 31 32 33 32 32 33 33 34 35 37 38 39 40 41 41 40 39 39 40 40 41 40
35 35 36 37 38 35 33 33 33 31 31 31 33 32 32 32 32 32 33 33 32 31 31 31 31 30 29 29 28 26 23 21 20 19 18 18 19 19 20 19 19 20 21 22 23 24 24 23 23 23 23 23 23 24 24 25 27 27 27 28 30 31 31 33 33 34 34 33 32 33 34 36 37 38 39 40 40 39 38 38 39 40 40 40 39
37 37 37 37 35 32 30 30 30 30 30 31 32 33 31 30 30 31 32 33 33 32 32 33 33 32 31 30 29 26 23 22 20 19 19 19 19 20 20 20 20 20 21 22 24 25 25 25 24 24 24 24 25 25 25 26 27 28 28 28 30 30 31 33 34 36 36 33 30 32 34 36 37 38 39 39 39 38 37 38 39 40 40 40 39
35 35 35 34 31 29 28 27 26 27 29 31 32 32 31 30 30 31 32 33 33 33 33 33 34 34 33 31 29 26 23 22 20 19 19 19 20 21 20 20 20 20 22 24 25 26 27 26 26 26 25 26 26 26 27 27 28 28 29 29 29 30 31 32 34 34 32 29 29 33 35 36 38 38 38 38 37 37 37 38 39 40 40 39 38
29 29 30 30 29 28 26 25 24 25 27 29 31 31 30 30 31 32 33 34 33 34 34 34 35 35 34 32 30 26 24 22 21 20 20 20 21 21 20 20 21 21 23 25 26 27 27 27 27 27 27 27 28 28 28 28 28 29 29 29 30 30 31 31 32 32 31 31 34 36 36 37 38 38 37 37 37 37 37 38 39 40 39 38 37
28 28 28 28 27 26 25 24 24 25 26 28 29 30 31 31 32 33 34 34 34 34 34 35 36 36 35 33 30 27 25 24 23 22 21 21 22 22 20 21 23 23 24 26 27 28 28 28 28 27 28 28 29 30 30 29 28 29 29 30 31 31 31 31 32 33 35 36 37 37 38 38 39 38 37 37 37 37 38 39 39 39 38 37 36
32 31 28 27 26 25 25 24 25 27 28 29 30 31 32 32 32 33 35 35 36 35 34 35 36 36 35 33 31 28 26 26 25 23 21 22 24 24 22 23 24 25 26 27 28 29 28 27 27 27 28 29 29 31 31 29 29 29 30 30 30 31 31 32 34 36 37 37 38 38 39 39 39 38 37 37 37 37 38 39 39 38 37 36 35
33 30 27 26 25 23 23 24 25 27 28 30 31 31 32 33 33 34 35 37 37 35 34 35 35 35 35 33 31 30 28 27 26 25 23 23 24 24 25 26 26 26 27 28 29 29 28 28 28 28 29 29 30 31 31 30 29 29 29 30 31 31 32 34 36 38 38 38 39 39 40 40 39 38 36 36 37 38 39 39 38 37 35 34 34
30 27 24 24 23 23 23 24 25 25 27 29 31 32 32 33 33 35 37 38 36 34 33 33 34 35 35 35 33 31 29 28 28 27 25 25 25 26 27 28 29 28 29 29 30 29 28 29 29 29 29 30 30 31 30 29 29 29 30 31 32 34 35 36 37 38 38 39 39 40 40 39 39 37 36 36 38 39 39 38 37 36 34 33 32
26 24 23 23 23 23 24 23 23 23 25 27 29 30 31 32 33 36 38 37 34 32 32 33 35 36 36 35 33 30 28 29 29 27 26 26 27 26 27 29 31 31 30 30 29 28 28 29 30 29 29 30 30 30 29 28 29 30 32 34 35 35 36 36 36 37 37 38 39 39 39 38 38 37 36 37 38 39 39 38 37 35 34 33 32
25 24 22 21 21 21 22 22 22 23 24 25 27 28 29 31 34 36 36 34 32 32 33 35 36 37 36 35 32 29 28 29 29 27 25 25 26 25 26 29 31 30 28 28 28 28 29 30 29 28 28 29 29 29 29 28 30 32 35 36 35 33 33 33 35 36 37 38 38 38 38 37 37 37 37 38 39 39 38 37 36 35 34 33 32
26 26 24 23 24 25 26 27 28 28 28 28 28 29 30 33 34 35 34 33 33 34 34 35 35 36 35 34 32 30 29 29 27 26 25 25 25 25 26 28 28 26 26 27 28 28 29 28 27 27 28 29 29 30 32 32 33 35 36 35 34 33 34 35 36 36 36 36 37 37 37 36 36 36 37 38 39 39 38 37 36 35 34 33 33
26 27 27 27 29 31 32 32 32 32 33 32 31 32 33 34 34 34 34 34 34 35 35 34 34 34 33 31 30 29 29 27 26 26 27 25 25 26 26 28 28 28 28 29 28 28 27 26 26 27 29 30 30 33 36 36 35 35 35 35 35 36 37 37 36 35 35 35 36 36 36 35 36 37 38 39 39 38 38 37 36 35 34 34 34
29 30 30 32 33 35 37 36 35 34 34 33 33 34 35 35 34 35 35 35 36 35 34 33 32 32 32 30 29 28 28 26 25 27 28 26 25 26 27 28 29 29 28 28 27 27 26 27 28 29 31 32 33 35 37 37 36 35 34 35 36 36 36 36 35 34 35 35 35 36 36 36 36 38 38 39 39 38 37 37 36 36 36 35 35
35 35 35 36 36 36 36 37 37 37 36 34 34 35 35 35 35 36 36 36 36 34 32 32 31 30 30 29 29 28 27 26 26 27 27 26 26 26 27 27 27 27 27 26 27 27 27 29 31 33 34 34 34 34 36 38 38 37 35 34 34 34 34 34 33 33 34 35 35 35 35 36 38 39 39 39 39 38 37 38 38 38 38 37 37
41 40 40 39 38 35 34 35 37 39 40 38 36 36 36 36 36 37 37 37 34 32 31 31 30 29 29 29 28 27 26 26 26 26 26 26 25 25 26 26 26 26 27 27 28 29 30 31 34 36 36 36 36 35 36 38 39 38 35 34 33 33 33 32 33 33 34 34 34 34 35 37 39 40 40 39 39 38 38 38 39 39 39 39 39
43 41 39 37 36 35 37 37 36 35 38 39 39 39 39 38 38 38 37 35 33 32 31 30 29 29 29 28 26 25 25 25 26 26 25 25 25 26 26 26 27 27 28 29 30 31 33 35 37 37 38 38 37 37 38 39 39 38 36 35 34 33 33 33 33 34 34 33 33 34 36 37 39 40 40 40 39 38 38 39 39 39 40 40 40
39 37 34 32 32 35 37 38 36 33 33 36 40 41 40 39 39 38 36 34 33 32 30 29 29 29 28 25 25 25 26 26 25 25 26 26 27 27 27 27 28 29 29 30 32 33 35 36 37 37 36 36 37 37 38 38 38 37 36 35 35 34 33 33 33 34 33 33 33 35 36 38 40 40 40 40 39 39 38 39 39 39 39 39 39
34 32 30 30 31 34 36 35 34 31 28 30 35 39 39 39 38 37 34 33 32 30 29 29 29 27 26 25 26 26 26 26 26 26 27 28 28 28 28 28 29 30 31 32 33 34 35 36 35 35 35 35 35 36 36 36 36 36 36 35 35 34 34 34 34 34 33 33 34 35 37 39 40 40 40 40 40 39 38 39 40 40 39 39 39
25 25 27 29 30 33 35 35 33 32 30 29 32 37 39 38 37 36 34 32 31 30 29 29 27 26 26 26 26 26 26 26 27 27 28 28 28 27 27 28 30 31 32 33 34 35 36 36 35 35 34 34 34 34 34 35 35 35 35 35 35 35 35 35 35 35 34 34 35 36 38 38 39 39 40 40 39 38 39 40 41 41 41 41 41
21 22 26 28 29 31 35 36 35 34 34 33 34 37 39 38 38 38 34 31 31 30 29 28 27 27 27 27 27 27 27 28 28 28 28 27 27 27 28 29 30 31 33 34 35 36 36 36 36 35 34 33 33 33 33 34 35 35 35 35 35 35 36 36 36 36 35 35 36 37 37 38 39 39 39 38 38 38 40 41 42 42 43 43 43
Wind_Direction
247 253 258 257 250 246 244 241 241 243 243 245 251 259 267 272 276 278 280 286 288 288 290 294 297 299 299 298 298 299 298 299 297 293 293 293 293 294 298 301 303 302 299 300 302 301 300 301 302 306 310 311 310 306 300 295 290 289 292 290 295 302 297 291 291 294 298 297 298 301 308 316 319 319 319 321 324 326 328 330 331 332 333 334 335
247 249 253 256 252 249 246 238 236 245 251 253 259 266 274 281 283 282 281 284 286 286 290 293 295 298 297 295 294 294 295 295 291 289 289 289 290 294 297 299 300 299 296 297 298 300 302 302 303 306 307 306 305 301 292 286 284 282 281 279 285 296 294 289 289 289 289 288 292 302 311 318 318 318 319 322 325 327 328 329 330 331 332 332 332
249 250 252 254 252 251 246 236 236 246 251 255 260 263 268 273 276 278 277 280 285 287 289 291 292 294 293 290 290 290 291 290 287 286 286 288 292 296 297 297 298 297 294 294 297 301 303 304 305 306 306 304 301 298 292 286 278 271 273 276 282 291 289 283 281 278 279 286 298 308 315 318 318 319 321 324 326 328 328 329 330 331 331 330 330
247 249 251 250 249 250 247 241 247 254 252 254 257 258 258 259 263 270 274 277 281 284 288 289 289 289 288 287 287 287 288 287 284 283 283 288 294 296 297 298 298 296 294 295 298 303 306 306 307 308 308 307 303 298 294 287 277 268 272 280 283 282 278 274 271 273 280 295 306 310 315 318 319 321 322 324 326 327 328 328 329 330 329 328 329
243 245 248 248 247 249 251 251 254 255 252 251 252 254 255 255 260 268 273 275 276 279 283 285 286 286 285 285 286 287 286 282 281 280 282 290 295 296 297 297 295 293 294 297 301 304 306 306 307 309 308 307 306 302 296 290 284 275 274 280 280 272 264 262 266 275 290 304 307 309 315 318 318 321 322 323 325 326 327 328 328 327 327 327 328
241 243 245 247 246 247 252 256 255 251 250 250 249 253 257 258 264 269 272 275 275 278 280 281 283 282 282 284 287 289 285 278 277 280 287 293 295 295 295 293 290 290 292 296 299 302 304 303 304 306 303 303 305 302 297 296 291 281 275 276 273 264 255 257 268 284 298 304 305 308 314 317 318 321 321 322 323 326 329 329 328 327 326 326 327
238 241 245 248 248 248 251 255 254 247 246 252 256 259 262 265 269 271 272 274 277 279 280 280 280 279 280 284 287 287 283 277 276 281 289 293 295 296 292 288 286 288 291 293 297 300 302 301 302 301 297 298 300 298 296 293 286 279 275 271 267 259 255 262 276 290 298 301 303 308 313 316 318 320 321 322 324 328 331 331 329 327 327 326 326
237 241 246 251 253 253 253 253 252 242 238 250 259 261 264 266 269 270 271 273 276 278 279 279 277 276 279 284 286 284 280 277 276 281 287 291 294 293 288 286 287 289 291 293 298 301 301 300 300 298 296 296 294 292 288 280 276 277 270 260 257 256 262 273 283 291 296 298 302 308 312 316 318 318 320 322 326 331 332 330 329 328 327 326 325
239 243 247 251 255 258 258 256 253 245 240 252 259 258 261 265 267 268 269 272 274 277 278 277 275 274 279 284 284 279 275 274 275 280 285 288 290 287 286 287 290 293 293 297 301 302 300 300 301 299 295 292 288 283 276 270 272 273 264 254 252 259 270 280 287 291 293 296 301 307 310 314 315 316 319 324 328 331 331 329 328 328 327 326 324
241 244 246 249 254 259 259 257 254 251 250 255 257 258 263 265 265 266 268 270 272 275 276 275 272 273 278 282 281 274 270 270 273 279 284 286 286 284 286 290 293 296 298 302 304 302 301 303 304 300 292 287 282 274 269 269 268 264 262 259 259 266 275 282 288 290 292 296 301 305 308 311 312 315 321 325 329 330 328 327 328 328 327 326 324
239 241 243 248 252 256 256 255 254 256 258 255 253 261 267 266 264 264 267 270 271 273 274 271 269 272 277 280 276 269 266 268 272 277 281 282 282 282 286 290 295 299 301 303 305 303 303 303 302 298 289 283 277 269 268 270 267 261 261 263 267 273 277 282 287 289 293 297 301 304 306 309 312 316 322 326 328 328 326 326 327 327 326 325 323
238 241 244 248 251 253 256 256 255 259 262 254 252 263 266 263 263 264 268 271 271 271 270 267 268 271 276 276 271 264 263 266 270 274 278 278 279 282 286 290 295 298 299 301 303 302 301 299 297 294 287 280 272 267 269 271 270 265 262 264 271 277 280 284 288 291 295 298 300 303 306 309 313 318 322 324 325 325 324 324 325 325 324 323 321
240 245 247 247 249 253 257 257 254 256 259 254 254 262 262 260 262 264 269 270 269 268 267 267 269 271 274 272 265 260 259 262 267 272 275 276 277 280 284 287 291 293 294 296 298 298 297 295 293 290 283 276 270 269 271 274 273 268 264 266 272 277 281 286 289 292 296 298 300 303 307 310 314 318 320 321 321 321 321 322 323 323 322 321 320
245 249 248 246 247 252 259 259 252 250 257 259 259 259 256 258 262 264 268 269 267 267 267 268 269 269 269 266 259 255 256 259 264 269 272 274 275 276 277 280 285 287 289 290 292 292 293 292 289 286 280 274 271 272 275 276 273 267 265 267 271 276 281 286 290 293 295 298 301 304 307 310 314 317 318 319 318 318 319 320 321 321 320 320 319
246 247 247 247 249 254 264 264 252 248 255 256 254 252 253 257 261 263 266 266 266 266 266 267 267 266 264 259 255 252 253 257 261 266 270 272 272 269 268 273 278 282 284 286 288 288 289 289 286 282 277 273 272 274 277 276 271 266 265 268 272 277 282 286 290 293 295 297 300 303 306 310 313 315 316 316 316 316 317 318 320 320 320 319 319
242 244 246 248 251 255 258 254 246 243 245 244 246 248 252 255 258 260 262 264 265 265 266 267 265 263 259 255 251 249 250 255 259 264 268 269 267 263 263 267 273 278 281 283 285 285 286 286 283 279 276 274 272 274 276 272 267 265 266 270 274 279 283 288 290 292 294 297 300 302 305 309 312 313 314 314 314 315 316 318 319 320 320 319 319
241 244 246 247 250 252 247 242 242 243 241 242 245 247 249 251 253 257 260 263 264 264 265 265 262 259 255 250 247 245 248 253 257 262 265 265 263 260 262 264 270 276 279 281 282 282 284 283 280 277 275 274 273 274 273 268 265 265 268 272 275 280 285 288 290 291 294 297 298 301 305 308 311 311 312 312 313 314 316 318 319 319 319 318 318
242 242 243 248 250 246 240 243 247 245 245 248 248 246 246 249 251 254 258 261 262 262 263 261 259 257 252 246 243 242 246 252 257 261 262 261 260 261 263 266 270 274 277 280 281 281 282 281 278 276 274 273 273 273 272 266 265 266 268 272 275 281 285 287 289 292 295 296 297 301 305 307 309 309 310 311 312 314 316 317 317 317 317 317 317
239 240 243 248 247 240 239 247 248 246 252 255 251 247 246 249 251 252 255 257 259 260 260 258 256 253 246 242 240 241 246 253 257 260 259 258 259 261 265 268 271 274 277 279 279 279 280 280 279 276 273 273 273 273 271 266 264 266 268 271 275 280 284 286 289 292 294 295 297 301 304 306 307 307 309 310 312 314 315 316 316 316 316 316 316
238 239 242 243 241 239 240 247 253 256 259 258 253 248 248 250 251 251 253 255 258 259 256 255 252 247 242 241 241 243 248 254 256 257 257 256 257 260 265 269 272 275 277 278 277 277 278 280 279 276 272 272 272 272 269 264 263 265 268 272 276 280 284 287 290 291 293 295 298 301 303 304 305 307 308 310 312 313 314 314 314 315 315 315 316
239 240 242 241 239 239 238 244 255 260 260 256 250 247 248 249 250 250 251 253 256 255 252 252 249 244 243 244 244 246 250 253 254 255 255 254 256 259 265 270 273 276 277 278 277 277 279 280 279 275 272 271 271 270 266 262 263 265 269 272 276 280 285 288 289 290 292 295 297 300 302 303 305 306 308 309 311 312 312 313 313 314 315 315 315
240 242 244 241 236 231 231 243 255 260 260 253 247 247 249 251 250 250 250 252 252 250 250 250 248 246 246 246 246 248 250 252 253 255 255 254 254 259 266 271 275 278 279 279 278 280 282 283 279 275 271 270 270 268 264 262 263 266 270 273 277 282 285 287 288 290 292 294 297 299 301 303 304 306 308 309 310 311 311 312 313 314 314 314 315
239 239 240 237 229 223 229 243 252 258 259 251 246 248 250 251 249 248 249 250 248 246 248 249 248 248 248 246 247 248 248 251 253 255 256 253 253 259 266 272 276 279 281 280 279 281 283 283 278 272 269 268 267 266 264 264 266 269 271 274 278 282 284 286 288 290 291 293 296 299 301 302 304 306 307 308 309 310 311 311 312 313 314 314 314
236 236 236 231 224 221 225 235 243 252 258 255 250 250 250 249 247 245 246 245 243 243 246 248 249 249 248 246 246 245 246 249 253 257 257 253 253 259 267 273 277 279 280 280 279 280 282 282 278 270 265 265 265 265 265 267 269 271 273 276 279 281 283 285 287 289 291 293 296 299 301 302 304 305 306 307 309 310 310 311 312 313 313 314 314
233 233 231 228 227 227 230 236 244 253 259 256 251 249 248 246 243 241 241 241 240 241 244 246 248 248 247 245 244 244 246 249 254 258 258 255 255 260 268 273 276 278 279 278 277 277 279 281 279 272 265 263 264 266 268 269 271 272 274 276 278 280 282 285 287 289 291 294 297 300 301 303 304 305 306 307 308 309 310 311 311 312 313 314 314
228 227 227 233 239 239 238 243 250 254 253 250 247 246 244 242 240 238 238 238 239 239 242 244 246 247 246 245 244 246 248 251 256 259 259 257 257 262 269 273 275 276 277 276 274 274 277 281 281 275 268 264 265 267 269 270 272 273 274 275 277 279 282 284 287 290 293 296 299 300 301 302 302 304 305 306 307 308 309 310 311 312 313 314 315
229 233 237 242 244 240 238 240 246 249 247 246 246 244 242 240 239 237 237 238 238 239 241 243 245 246 246 245 246 248 251 255 258 258 258 257 257 263 269 272 274 275 275 274 272 273 276 280 281 277 271 267 266 268 270 271 272 273 274 274 276 279 282 285 289 292 294 297 299 300 300 300 301 303 304 305 307 308 309 310 312 313 313 314 316
237 242 245 244 242 239 235 235 241 248 250 247 245 243 242 241 238 237 236 236 238 239 240 242 245 245 245 246 248 250 254 257 258 257 256 255 256 262 268 271 273 275 274 273 272 272 276 279 279 277 273 270 269 269 270 271 272 273 273 275 278 281 284 288 291 293 295 296 298 299 299 299 301 303 304 305 306 308 309 310 311 312 313 315 316
241 244 245 244 242 239 235 236 243 248 249 248 247 245 241 239 238 238 237 237 238 239 240 242 243 243 244 246 249 252 256 258 259 258 255 252 254 261 268 271 273 274 273 272 270 271 273 277 278 276 275 272 271 271 271 271 272 273 275 278 281 284 287 290 292 293 294 296 297 297 297 299 301 302 303 304 306 307 309 310 311 312 313 315 316
243 244 244 245 244 240 237 239 242 245 245 246 247 244 239 237 237 237 237 237 239 240 241 243 244 244 244 246 249 254 258 259 260 257 251 249 254 261 267 270 271 272 271 270 269 270 272 275 276 276 276 274 272 272 272 272 273 275 277 280 283 285 287 288 289 291 293 294 295 295 296 299 301 301 302 304 305 307 308 309 311 312 314 315 316
242 243 243 243 243 239 235 237 240 242 242 242 242 241 238 237 236 236 235 235 237 239 240 242 244 244 244 246 250 255 258 259 258 254 249 248 253 260 264 267 269 270 269 269 269 270 272 274 275 276 276 276 274 273 274 275 276 277 279 282 282 284 285 287 288 290 291 292 293 293 295 298 299 300 302 304 305 307 308 310 311 313 314 315 316
239 240 238 237 236 233 230 233 237 237 236 236 237 238 238 239 238 236 235 235 236 237 239 241 243 243 243 246 251 255 257 257 256 252 248 249 253 258 261 264 266 267 267 269 270 272 272 273 274 275 276 277 276 276 276 277 278 280 282 283 284 285 287 289 290 290 290 291 291 291 295 298 299 301 303 304 305 307 309 311 312 313 314 315 316
235 234 230 229 229 228 226 228 231 231 231 233 235 237 238 237 234 232 234 235 236 236 238 240 242 242 243 247 251 253 254 255 253 251 250 251 253 256 258 261 263 266 268 269 270 272 273 272 273 274 276 277 277 277 278 279 280 282 284 285 287 288 290 291 292 292 292 291 289 292 296 299 300 301 303 304 306 307 309 311 312 313 314 314 315
226 224 222 222 223 224 226 228 228 229 231 233 235 237 238 236 232 232 235 236 236 236 237 238 241 242 244 248 250 252 252 251 250 250 252 253 254 255 257 260 263 265 267 268 269 271 272 272 273 273 275 276 277 278 279 279 281 283 286 288 290 291 292 293 296 299 298 294 293 296 299 299 300 302 304 305 306 308 309 311 312 313 313 313 314
217 218 219 219 221 225 228 230 229 230 232 235 237 239 239 239 237 237 238 238 236 236 236 237 240 243 245 248 250 250 249 247 249 251 253 253 253 254 257 261 264 264 265 267 269 270 270 271 272 273 274 275 277 278 279 280 282 285 288 289 289 290 292 295 298 300 299 298 298 299 300 300 301 303 305 306 306 308 309 310 311 312 313 313 314
220 221 221 221 223 225 227 228 230 233 234 235 237 238 239 239 239 239 240 238 236 235 235 237 240 243 245 247 249 249 247 246 247 249 250 254 255 254 257 261 264 264 265 267 268 269 270 271 272 273 273 275 276 277 278 280 283 285 286 287 287 288 291 295 296 296 296 297 298 299 300 301 303 304 305 306 306 307 309 310 311 312 312 313 313
226 226 225 224 226 226 227 231 235 237 237 235 236 238 239 239 239 240 239 237 235 233 233 236 240 243 244 246 247 247 245 246 248 249 253 261 262 258 259 265 267 267 268 268 269 270 270 271 271 271 271 272 273 275 277 280 282 283 284 285 286 288 291 294 295 295 296 297 298 300 301 302 303 304 304 305 306 307 309 310 311 311 312 312 312
227 228 227 227 227 228 230 233 236 237 237 236 237 238 238 239 239 239 238 237 235 233 233 236 240 241 243 244 246 246 245 246 250 252 257 266 268 265 265 268 268 269 270 270 270 271 271 271 270 269 269 271 272 274 278 280 281 283 286 287 288 290 292 294 295 296 297 297 298 300 300 300 301 302 303 304 305 307 309 309 310 310 311 311 311
228 228 228 228 228 227 228 229 232 234 235 237 239 238 238 238 237 237 237 236 234 233 233 236 237 238 241 243 243 245 246 249 253 256 261 269 273 271 269 267 267 270 273 272 271 270 270 271 270 269 270 271 273 275 278 280 282 285 287 289 290 292 293 293 294 295 296 296 297 298 299 299 300 301 303 304 305 307 308 308 309 309 310 310 310
225 225 227 229 228 227 226 227 230 233 234 237 239 239 238 236 236 236 236 235 233 232 231 231 232 236 240 241 242 245 249 252 257 263 269 273 275 274 270 267 268 272 273 271 268 267 267 269 271 271 272 272 273 275 277 279 283 286 288 289 291 292 292 292 293 294 295 295 296 297 297 298 299 301 303 304 304 306 307 308 308 309 308 309 310
211 213 218 223 226 226 225 225 227 230 233 236 239 240 237 235 235 235 234 232 230 229 228 228 230 236 241 244 247 250 252 254 259 266 271 272 271 271 270 270 270 269 268 267 267 267 268 271 272 272 272 272 273 275 278 280 283 286 288 290 292 292 290 290 292 294 294 294 295 296 296 297 299 301 302 303 304 306 307 307 308 308 307 307 308
207 211 215 222 227 228 230 233 235 236 237 236 236 235 233 233 233 233 231 228 226 225 225 227 231 237 243 247 250 251 253 258 264 267 268 268 267 266 267 268 268 265 265 268 271 271 272 273 273 272 272 273 276 279 281 283 285 287 289 290 291 290 290 291 293 294 294 294 294 295 296 297 299 299 301 302 304 306 307 307 308 307 306 306 307
223 226 228 232 233 231 231 233 235 236 236 234 232 230 228 229 229 228 225 224 223 224 225 227 232 238 243 245 248 252 255 259 262 263 263 263 263 263 263 264 265 265 268 272 273 273 273 272 272 272 273 276 279 282 284 285 286 287 289 289 289 290 292 293 294 294 294 294 294 294 295 297 298 298 300 303 305 306 306 307 308 308 307 306 306
239 239 240 241 240 236 233 232 232 232 232 231 228 227 226 225 224 223 221 222 223 225 227 229 233 239 243 247 251 255 257 259 261 261 262 261 261 260 260 261 262 265 267 270 270 271 272 272 273 274 276 279 281 282 284 285 286 286 287 287 287 289 290 292 292 293 292 292 292 294 295 297 297 298 300 303 305 306 306 307 307 308 307 307 306
242 242 242 240 240 239 238 237 236 234 231 228 225 224 223 221 220 219 219 221 224 226 229 232 235 240 245 249 253 255 258 260 261 259 259 260 259 258 258 259 260 262 264 267 269 270 272 275 277 279 280 280 280 281 282 284 285 285 286 286 285 286 287 288 289 290 290 290 292 294 295 296 296 298 301 304 305 306 306 306 306 307 307 306 305
245 245 243 241 241 242 243 245 244 237 231 225 221 219 219 217 217 218 219 222 225 227 230 234 238 242 246 249 252 255 257 257 256 255 256 257 256 255 255 256 258 261 264 267 270 273 275 278 279 280 281 280 281 282 283 283 284 285 286 285 284 284 285 286 287 288 288 290 292 293 294 295 296 298 301 304 306 306 306 306 306 306 306 305 305
247 247 245 243 243 243 244 250 254 247 235 226 218 213 214 213 213 216 219 221 224 228 232 237 241 244 246 249 251 252 251 250 251 251 252 252 252 252 255 257 260 264 268 270 273 276 277 277 277 278 280 282 284 285 285 284 285 285 285 284 284 284 285 286 286 287 288 290 291 292 293 294 296 299 302 304 306 306 306 307 307 307 306 305 304
246 247 247 245 243 241 241 248 256 252 239 229 220 212 208 208 211 215 218 221 225 230 234 239 241 243 245 247 247 245 244 245 247 248 249 250 253 256 260 264 267 269 272 274 275 276 277 277 278 280 282 284 285 284 284 284 284 284 283 284 284 284 285 285 286 287 288 290 291 291 292 293 296 299 302 304 304 305 306 308 309 307 306 305 304
247 249 248 245 243 240 238 241 247 245 235 227 220 211 205 206 211 215 218 221 225 229 232 235 237 240 241 241 240 240 241 243 245 247 250 253 257 262 266 269 271 273 274 275 276 276 277 279 282 283 284 284 283 283 283 283 284 284 284 284 285 285 285 285 285 286 288 288 289 289 290 293 296 299 302 303 303 304 307 309 308 307 307 306 304
253 251 247 244 244 243 239 237 238 236 231 227 221 212 207 208 212 215 218 220 222 224 225 228 232 235 236 236 237 238 240 243 246 249 253 257 261 265 269 272 274 276 277 278 278 278 279 281 283 284 284 284 283 283 284 285 286 286 286 286 285 285 286 285 285 287 288 288 289 290 292 294 297 300 302 302 301 303 307 308 307 306 306 305 303
253 250 247 246 246 244 241 239 236 230 226 225 222 217 213 212 211 211 212 212 214 216 219 224 229 231 231 233 235 238 241 244 248 252 256 260 264 268 272 274 276 278 279 279 280 281 282 282 282 283 284 284 283 283 286 287 287 286 285 285 285 285 286 286 287 288 289 289 290 291 293 296 298 301 302 301 301 304 306 306 306 306 306 305 303